When you browse on this site, cookies collect data to enhance your experience and personalize the content and advertising you see.
Visit our Privacy Policy to learn more. By continuing to use the site, you agree to this use of cookies and data.
  • In Belgien
  • Länderverzeichnis
  • Für 7 Tage
  • Wassertemperatur
  • Wetterkarte
  • Widgets
  • user-avatar
    Anmelden

    Stündliche Wetter Francistown

    Heute, 6 Juni, Samstag

    Zeit Temperatur Niederschläge Wind Luftdruck Luftfeuchtigkeit
    00:00 +11°C° 0 mm 3 m/S 681 mmHg 83%
    01:00 +10°C° 0 mm 3 m/S 681 mmHg 86%
    02:00 +10°C° 0 mm 3 m/S 681 mmHg 90%
    03:00 +9°C° 0 mm 3 m/S 681 mmHg 91%
    04:00 +9°C° 0 mm 3 m/S 681 mmHg 92%
    05:00 +8°C° 0 mm 3 m/S 680 mmHg 93%
    06:00 +9°C° 0 mm 3 m/S 681 mmHg 89%
    07:00 +10°C° 0 mm 4 m/S 682 mmHg 84%
    08:00 +11°C° 0 mm 4 m/S 682 mmHg 80%
    09:00 +13°C° 0 mm 5 m/S 682 mmHg 68%
    10:00 +16°C° 0 mm 5 m/S 683 mmHg 57%
    11:00 +20°C° 0 mm 6 m/S 683 mmHg 45%
    12:00 +21°C° 0 mm 6 m/S 683 mmHg 39%
    13:00 +22°C° 0 mm 6 m/S 682 mmHg 33%
    14:00 +23°C° 0 mm 6 m/S 682 mmHg 28%
    15:00 +22°C° 0 mm 5 m/S 681 mmHg 30%
    16:00 +21°C° 0 mm 5 m/S 681 mmHg 33%
    17:00 +20°C° 0 mm 5 m/S 681 mmHg 35%
    18:00 +17°C° 0 mm 5 m/S 681 mmHg 44%
    19:00 +15°C° 0 mm 4 m/S 681 mmHg 52%
    20:00 +13°C° 0 mm 4 m/S 682 mmHg 60%
    21:00 +12°C° 0 mm 4 m/S 681 mmHg 66%
    22:00 +11°C° 0 mm 3 m/S 681 mmHg 72%
    23:00 +10°C° 0 mm 3 m/S 681 mmHg 78%

    Morgen, 7 Juni, Sonntag

    Zeit Temperatur Niederschläge Wind Luftdruck Luftfeuchtigkeit
    00:00 +10°C° 0 mm 3 m/S 681 mmHg 82%
    01:00 +9°C° 0 mm 3 m/S 680 mmHg 86%
    02:00 +9°C° 0 mm 3 m/S 680 mmHg 90%
    03:00 +9°C° 0 mm 3 m/S 680 mmHg 91%
    04:00 +9°C° 0 mm 2 m/S 680 mmHg 93%
    05:00 +9°C° 0 mm 2 m/S 680 mmHg 94%
    06:00 +10°C° 0 mm 3 m/S 681 mmHg 90%
    07:00 +11°C° 0 mm 3 m/S 681 mmHg 87%
    08:00 +12°C° 0 mm 4 m/S 682 mmHg 83%
    09:00 +14°C° 0 mm 5 m/S 682 mmHg 73%
    10:00 +17°C° 0 mm 5 m/S 682 mmHg 62%
    11:00 +20°C° 0 mm 6 m/S 683 mmHg 51%
    12:00 +21°C° 0 mm 6 m/S 682 mmHg 49%
    13:00 +21°C° 0 mm 6 m/S 681 mmHg 47%
    14:00 +22°C° 0 mm 6 m/S 681 mmHg 45%
    15:00 +21°C° 0 mm 5 m/S 681 mmHg 46%
    16:00 +21°C° 0 mm 5 m/S 680 mmHg 48%
    17:00 +20°C° 0 mm 4 m/S 680 mmHg 50%
    18:00 +18°C° 0 mm 4 m/S 680 mmHg 56%
    19:00 +16°C° 0 mm 3 m/S 680 mmHg 62%
    20:00 +13°C° 0 mm 3 m/S 680 mmHg 68%
    21:00 +12°C° 0 mm 3 m/S 680 mmHg 64%
    22:00 +12°C° 0 mm 3 m/S 680 mmHg 60%
    23:00 +11°C° 0 mm 3 m/S 680 mmHg 56%

    übermorgen, 8 Juni, Montag

    Zeit Temperatur Niederschläge Wind Luftdruck Luftfeuchtigkeit
    00:00 +10°C° 0 mm 3 m/S 680 mmHg 58%
    01:00 +9°C° 0 mm 2 m/S 679 mmHg 61%
    02:00 +9°C° 0 mm 2 m/S 679 mmHg 63%
    03:00 +8°C° 0 mm 2 m/S 679 mmHg 68%
    04:00 +8°C° 0 mm 2 m/S 679 mmHg 72%
    05:00 +7°C° 0 mm 2 m/S 679 mmHg 77%
    06:00 +8°C° 0 mm 2 m/S 679 mmHg 72%
    07:00 +9°C° 0 mm 2 m/S 680 mmHg 67%
    08:00 +10°C° 0 mm 2 m/S 680 mmHg 62%
    09:00 +14°C° 0 mm 3 m/S 681 mmHg 52%
    10:00 +18°C° 0 mm 4 m/S 681 mmHg 43%
    11:00 +21°C° 0 mm 5 m/S 682 mmHg 33%
    12:00 +22°C° 0 mm 5 m/S 681 mmHg 30%
    13:00 +25°C° 0 mm 5 m/S 681 mmHg 27%
    14:00 +26°C° 0 mm 5 m/S 680 mmHg 24%
    15:00 +25°C° 0 mm 4 m/S 680 mmHg 26%
    16:00 +23°C° 0 mm 4 m/S 680 mmHg 29%
    17:00 +22°C° 0 mm 4 m/S 679 mmHg 32%
    18:00 +20°C° 0 mm 4 m/S 679 mmHg 41%
    19:00 +18°C° 0 mm 4 m/S 679 mmHg 49%
    20:00 +15°C° 0 mm 4 m/S 679 mmHg 58%
    21:00 +14°C° 0 mm 4 m/S 679 mmHg 62%
    22:00 +13°C° 0 mm 3 m/S 679 mmHg 66%
    23:00 +12°C° 0 mm 3 m/S 680 mmHg 70%

    9 Juni, Dienstag

    Zeit Temperatur Niederschläge Wind Luftdruck Luftfeuchtigkeit
    00:00 +12°C° 0 mm 3 m/S 679 mmHg 74%
    01:00 +11°C° 0 mm 3 m/S 679 mmHg 77%
    02:00 +10°C° 0 mm 3 m/S 679 mmHg 81%
    03:00 +10°C° 0 mm 2 m/S 679 mmHg 83%
    04:00 +10°C° 0 mm 2 m/S 679 mmHg 85%
    05:00 +9°C° 0 mm 2 m/S 679 mmHg 88%
    06:00 +10°C° 0 mm 2 m/S 679 mmHg 84%
    07:00 +12°C° 0 mm 2 m/S 680 mmHg 81%
    08:00 +13°C° 0 mm 2 m/S 680 mmHg 77%
    09:00 +16°C° 0 mm 3 m/S 681 mmHg 64%
    10:00 +19°C° 0 mm 4 m/S 681 mmHg 50%
    11:00 +22°C° 0 mm 5 m/S 681 mmHg 37%
    12:00 +23°C° 0 mm 5 m/S 681 mmHg 33%
    13:00 +25°C° 0 mm 4 m/S 680 mmHg 28%
    14:00 +27°C° 0 mm 4 m/S 679 mmHg 24%
    15:00 +26°C° 0 mm 4 m/S 679 mmHg 25%
    16:00 +25°C° 0 mm 3 m/S 679 mmHg 27%
    17:00 +25°C° 0 mm 3 m/S 679 mmHg 28%
    18:00 +21°C° 0 mm 3 m/S 679 mmHg 36%
    19:00 +19°C° 0 mm 3 m/S 679 mmHg 45%
    20:00 +15°C° 0 mm 4 m/S 679 mmHg 53%
    21:00 +14°C° 0 mm 3 m/S 679 mmHg 62%
    22:00 +13°C° 0 mm 3 m/S 679 mmHg 70%
    23:00 +12°C° 0 mm 3 m/S 679 mmHg 78%

    10 Juni, Mittwoch

    Zeit Temperatur Niederschläge Wind Luftdruck Luftfeuchtigkeit
    00:00 +12°C° 0 mm 3 m/S 679 mmHg 81%
    01:00 +12°C° 0 mm 2 m/S 678 mmHg 83%
    02:00 +12°C° 0 mm 2 m/S 678 mmHg 85%
    03:00 +12°C° 0 mm 2 m/S 678 mmHg 86%
    04:00 +10°C° 0 mm 2 m/S 678 mmHg 87%
    05:00 +10°C° 0 mm 2 m/S 678 mmHg 87%
    06:00 +12°C° 0 mm 2 m/S 678 mmHg 82%
    07:00 +13°C° 0 mm 2 m/S 679 mmHg 77%
    08:00 +14°C° 0 mm 2 m/S 679 mmHg 72%
    09:00 +17°C° 0 mm 2 m/S 680 mmHg 59%
    10:00 +21°C° 0 mm 2 m/S 680 mmHg 47%
    11:00 +25°C° 0 mm 2 m/S 681 mmHg 35%
    12:00 +26°C° 0 mm 2 m/S 680 mmHg 30%
    13:00 +28°C° 0 mm 1 m/S 679 mmHg 25%
    14:00 +29°C° 0 mm 1 m/S 679 mmHg 20%
    15:00 +28°C° 0 mm 1 m/S 678 mmHg 21%
    16:00 +27°C° 0 mm 1 m/S 678 mmHg 22%
    17:00 +26°C° 0 mm 1 m/S 677 mmHg 23%
    18:00 +24°C° 0 mm 1 m/S 677 mmHg 28%
    19:00 +21°C° 0 mm 1 m/S 677 mmHg 33%
    20:00 +18°C° 0 mm 1 m/S 677 mmHg 38%
    21:00 +16°C° 0 mm 1 m/S 677 mmHg 41%
    22:00 +16°C° 0 mm 1 m/S 677 mmHg 43%
    23:00 +15°C° 0 mm 1 m/S 677 mmHg 45%

    11 Juni, Donnerstag

    Zeit Temperatur Niederschläge Wind Luftdruck Luftfeuchtigkeit
    00:00 +14°C° 0 mm 1 m/S 677 mmHg 47%
    01:00 +14°C° 0 mm 1 m/S 676 mmHg 48%
    02:00 +14°C° 0 mm 1 m/S 676 mmHg 49%
    03:00 +13°C° 0 mm 2 m/S 676 mmHg 50%
    04:00 +13°C° 0 mm 2 m/S 676 mmHg 51%
    05:00 +13°C° 0 mm 2 m/S 676 mmHg 52%
    06:00 +13°C° 0 mm 3 m/S 676 mmHg 51%
    07:00 +16°C° 0 mm 3 m/S 677 mmHg 49%
    08:00 +17°C° 0 mm 4 m/S 678 mmHg 47%
    09:00 +20°C° 0 mm 4 m/S 678 mmHg 39%
    10:00 +25°C° 0 mm 4 m/S 679 mmHg 31%
    11:00 +28°C° 0 mm 5 m/S 679 mmHg 23%
    12:00 +29°C° 0 mm 4 m/S 678 mmHg 21%
    13:00 +29°C° 0 mm 4 m/S 678 mmHg 19%
    14:00 +30°C° 0 mm 3 m/S 677 mmHg 16%
    15:00 +29°C° 0 mm 2 m/S 677 mmHg 17%
    16:00 +28°C° 0 mm 2 m/S 677 mmHg 19%
    17:00 +27°C° 0 mm 2 m/S 676 mmHg 20%
    18:00 +25°C° 0 mm 2 m/S 676 mmHg 24%
    19:00 +21°C° 0 mm 2 m/S 676 mmHg 28%
    20:00 +18°C° 0 mm 2 m/S 676 mmHg 33%
    21:00 +18°C° 0 mm 2 m/S 676 mmHg 35%
    22:00 +18°C° 0 mm 1 m/S 676 mmHg 36%
    23:00 +16°C° 0 mm 1 m/S 676 mmHg 38%
    Mehr zeigen